[[{"header":{"parameterUnit":"m.s-1","parameterCategory":1,"la1":30.2991,"la2":30.254,"lo1":-89.0895,"lo2":-89.0444,"dy":0.0017,"dx":0.0017,"nx":28,"ny":28,"refTime":"2025-08-05T03:00:00:Z","depth":0,"parameterNumber":2,"parameterNumberName":"U-component_of_WINDS"},"data":[0,0,0,0,0,0,0,0,0,0,0,0,0,0,0,0,0,0,0,0,0,0,0,0,0,0,0,0,0,0,0,0,0,0,0,0,0,0,0,0,0,0,0,0,0,0,0,0,0,0,0,0,0,0,0,0,0,0,-1.6118,-1.6118,0,-1.6084,-1.6083,-1.6083,-1.5986,-1.5983,-1.5981,-1.5979,-1.5949,-1.595,-1.5951,0,0,0,0,0,0,0,0,0,0,0,0,0,-1.6104,-1.6105,-1.6118,-1.6118,-1.6118,-1.6084,-1.6083,-1.6083,-1.5986,-1.5983,-1.5981,-1.5978,-1.5949,-1.595,-1.5952,0,0,0,0,0,0,0,0,0,0,0,0,0,-1.6094,-1.6105,-1.6119,-1.6065,-1.606,-1.6084,-1.6083,-1.6083,-1.5986,-1.5983,-1.598,-1.5977,-1.5948,-1.595,-1.5952,-1.6026,0,0,-1.5957,-1.5958,0,0,0,0,0,0,0,0,-1.6095,-1.6095,-1.6073,-1.6069,-1.6063,-1.6035,-1.6067,-1.6064,-1.5987,-1.6015,-1.5979,-1.5976,-1.5981,-1.598,-1.598,-1.6025,-1.6024,-1.5957,-1.5958,-1.5959,-1.596,0,0,0,0,0,0,0,-1.6096,-1.6096,-1.6105,-1.6073,-1.6067,-1.6044,-1.6039,-1.6066,-1.6016,-1.6012,-1.6005,-1.6002,-1.5977,-1.5979,-1.5979,-1.6023,-1.5957,-1.5959,-1.596,-1.5961,-1.6125,-1.6128,0,0,0,0,0,0,-1.6104,-1.6097,-1.6106,-1.6104,-1.6071,-1.6047,-1.6041,-1.6048,-1.6016,-1.6007,-1.6004,-1.5997,-1.5977,-1.5977,-1.5978,-1.6061,-1.5959,-1.5961,-1.5962,-1.6121,-1.6125,-1.6129,0,0,0,0,0,0,-1.6104,-1.6105,-1.6107,-1.6098,-1.6097,-1.605,-1.6058,-1.6049,-1.605,-1.601,-1.6001,-1.6015,-1.5975,-1.5975,-1.6014,-1.6058,-1.5962,-1.5963,-1.6118,-1.6123,-1.6127,-1.6229,0,0,0,0,0,0,-1.6104,-1.6106,-1.6133,-1.61,-1.6098,-1.6144,-1.6061,-1.605,-1.6053,-1.6043,-1.6017,-1.601,-1.5972,-1.6012,-1.6016,-1.6059,-1.5965,-1.6113,-1.612,-1.6126,-1.6222,-1.6237,-1.625,0,0,0,0,0,-1.6104,-1.6165,-1.6135,-1.6137,-1.6131,-1.6146,-1.6145,-1.6099,-1.6057,-1.6084,-1.6058,-1.6011,-1.6053,-1.6017,-1.602,-1.6065,-1.611,-1.6118,-1.6125,-1.6215,-1.6234,-1.625,0,0,0,0,0,0,-1.6208,-1.616,-1.6126,-1.6178,-1.6167,-1.613,-1.6163,-1.6121,-1.6123,-1.6114,-1.6059,-1.6054,-1.61,-1.6087,-1.6047,-1.6134,-1.6074,-1.6082,-1.6141,-1.6159,-1.6173,-1.6175,-1.5966,0,0,0,0,0,-1.6236,-1.6252,-1.621,-1.626,-1.6256,-1.6211,-1.6216,-1.6181,-1.6168,-1.6163,-1.614,-1.613,-1.614,-1.6149,-1.6157,-1.6219,-1.6212,-1.6252,-1.6266,-1.6278,-1.6286,-1.6316,-1.6332,-1.6153,-1.6153,-1.6153,0,0,-1.6297,-1.6272,-1.6286,-1.628,-1.6267,-1.6285,-1.6207,-1.623,-1.6243,-1.6167,-1.6201,-1.6184,-1.6169,-1.622,-1.6241,-1.621,-1.6333,-1.6287,-1.6297,-1.6298,-1.6325,-1.6342,-1.6357,-1.6158,-1.6158,-1.6157,0,0,-1.6415,-1.6398,-1.6437,-1.6425,-1.6405,-1.6374,-1.6384,-1.6352,-1.6337,-1.637,-1.6313,-1.6328,-1.6348,-1.6339,-1.6337,-1.645,-1.6406,-1.6454,-1.6528,-1.6558,-1.6572,-1.6584,-1.6623,-1.6637,-1.6462,-1.6462,-1.6463,0,-1.6492,-1.6515,-1.6463,-1.6488,-1.6487,-1.6416,-1.6455,-1.6447,-1.6432,-1.6433,-1.6398,-1.6419,-1.6405,-1.6451,-1.6478,-1.648,-1.6488,-1.6456,-1.6574,-1.6586,-1.6596,-1.6632,-1.6647,-1.6468,-1.6467,-1.6467,-1.6466,0,-1.6611,-1.6628,-1.6662,-1.6646,-1.6649,-1.6681,-1.6634,-1.6643,-1.6608,-1.6581,-1.6615,-1.6594,-1.6596,-1.6604,-1.6572,-1.6645,-1.6626,-1.6584,-1.6522,-1.662,-1.6653,-1.6666,-1.6476,-1.6474,-1.6473,-1.6471,0,0,-1.6795,-1.6747,-1.6761,-1.6751,-1.6723,-1.6736,-1.6765,-1.6764,-1.6772,-1.6764,-1.6787,-1.6804,-1.6763,-1.6761,-1.6727,-1.6753,-1.6841,-1.6706,-1.6705,-1.6731,-1.6919,-1.695,-1.6967,-1.6811,-1.6814,-1.6816,-1.6919,0,-1.6905,-1.695,-1.6902,-1.6957,-1.6971,-1.6904,-1.6928,-1.6915,-1.689,-1.6899,-1.6872,-1.6885,-1.6831,-1.6829,-1.6852,-1.6825,-1.6877,-1.6817,-1.6832,-1.6833,-1.6836,-1.6984,-1.7018,-1.7116,-1.6932,-1.6934,-1.6936,0,-1.704,-1.7034,-1.709,-1.7056,-1.706,-1.7083,-1.7077,-1.7087,-1.7069,-1.7049,-1.7046,-1.7003,-1.7029,-1.6969,-1.7004,-1.6964,-1.6967,-1.6954,-1.6957,-1.6956,-1.689,-1.6986,-1.7147,-1.7161,-1.6956,-1.6954,-1.6953,0,-1.7166,-1.7173,-1.7206,-1.7201,-1.7163,-1.718,-1.7166,-1.7145,-1.7146,-1.7142,-1.7142,-1.7142,-1.7141,-1.7142,-1.7099,-1.706,-1.7139,-1.7076,-1.7123,-1.7124,-1.7142,-1.7141,-1.7305,-1.7147,-1.7147,-1.7146,-1.7146,0,-1.7293,-1.733,-1.7262,-1.7283,-1.7321,-1.7267,-1.7306,-1.7285,-1.7266,-1.7282,-1.7224,-1.724,-1.7184,-1.7194,-1.7161,-1.7194,-1.7195,-1.7179,-1.717,-1.7184,-1.7185,-1.7184,-1.7176,-1.715,-1.7149,-1.7149,-1.7148,0,-1.7441,-1.7397,-1.7429,-1.7389,-1.738,-1.741,-1.7376,-1.7393,-1.7364,-1.7384,-1.7386,-1.734,-1.7349,-1.7306,-1.7309,-1.7286,-1.7335,-1.7315,-1.734,-1.7333,-1.7382,-1.7377,-1.7549,-1.7568,-1.74,-1.7402,-1.7403,0,-1.7524,-1.755,-1.7512,-1.7517,-1.7504,-1.7514,-1.7514,-1.7461,-1.7464,-1.7444,-1.7464,-1.7467,-1.7467,-1.7484,-1.7452,-1.7452,-1.7431,-1.7491,-1.7431,-1.7443,-1.7429,-1.7428,-1.7429,-1.7504,-1.7506,-1.7507,-1.7509,0,-1.7676,-1.7653,-1.7654,-1.7648,-1.7649,-1.7643,-1.7632,-1.764,-1.7583,-1.7589,-1.7596,-1.7595,-1.7595,-1.7599,-1.7593,-1.7578,-1.7534,-1.7528,-1.7538,-1.7552,-1.7564,-1.7556,-1.7373,-1.7524,-1.7523,-1.7521,-1.7521,-1.752,-1.7793,-1.7811,-1.7786,-1.779,-1.7776,-1.7767,-1.778,-1.7751,-1.7755,-1.775,-1.7719,-1.7731,-1.7711,-1.7697,-1.7687,-1.7695,-1.7667,-1.7683,-1.7686,-1.7691,-1.7698,-1.7564,-1.7694,-1.7694,-1.7694,-1.7693,-1.7693,0,-1.794,-1.792,-1.7924,-1.7909,-1.7911,-1.7868,-1.7853,-1.7858,-1.7869,-1.7853,-1.7853,-1.786,-1.7862,-1.783,-1.7828,-1.7841,-1.7821,-1.7842,-1.784,-1.7837,-1.7725,-1.7715,-1.7859,-1.7859,-1.7859,-1.7859,-1.7859,-1.7859,-1.8017,-1.8045,-1.8018,-1.8039,-1.8019,-1.8028,-1.8024,-1.8015,-1.8001,-1.8011,-1.8011,-1.7989,-1.7966,-1.7962,-1.7962,-1.7953,-1.7954,-1.7982,-1.7966,-1.7861,-1.7845,-1.783,-1.782,-1.7983,-1.7984,-1.8076,-1.8077,-1.8078]},{"header":{"parameterUnit":"m.s-1","parameterCategory":1,"la1":30.2991,"la2":30.254,"lo1":-89.0895,"lo2":-89.0444,"dy":0.0017,"dx":0.0017,"nx":28,"ny":28,"refTime":"2025-08-05T03:00:00:Z","depth":0,"parameterNumber":3,"parameterNumberName":"V-component_of_WINDS"},"data":[0,0,0,0,0,0,0,0,0,0,0,0,0,0,0,0,0,0,0,0,0,0,0,0,0,0,0,0,0,0,0,0,0,0,0,0,0,0,0,0,0,0,0,0,0,0,0,0,0,0,0,0,0,0,0,0,0,0,-1.7852,-1.7852,0,-1.7829,-1.7829,-1.7829,-1.7818,-1.7818,-1.7818,-1.7818,-1.7791,-1.7791,-1.779,0,0,0,0,0,0,0,0,0,0,0,0,0,-1.7883,-1.7883,-1.7852,-1.7852,-1.7852,-1.7829,-1.7829,-1.7829,-1.7818,-1.7818,-1.7818,-1.7818,-1.7791,-1.7791,-1.779,0,0,0,0,0,0,0,0,0,0,0,0,0,-1.7866,-1.7883,-1.7853,-1.7844,-1.7843,-1.7829,-1.7829,-1.7829,-1.7818,-1.7818,-1.7818,-1.7818,-1.7792,-1.7791,-1.779,-1.7782,0,0,-1.7786,-1.7786,0,0,0,0,0,0,0,0,-1.7867,-1.7865,-1.7845,-1.7844,-1.7843,-1.7827,-1.783,-1.7813,-1.7818,-1.7827,-1.7818,-1.7818,-1.7803,-1.7801,-1.7796,-1.7781,-1.778,-1.7786,-1.7786,-1.7785,-1.7785,0,0,0,0,0,0,0,-1.7868,-1.7866,-1.7843,-1.7845,-1.7844,-1.784,-1.7837,-1.7827,-1.7815,-1.7826,-1.7826,-1.7823,-1.7802,-1.7797,-1.7796,-1.7779,-1.7786,-1.7785,-1.7785,-1.7784,-1.7753,-1.7753,0,0,0,0,0,0,-1.7871,-1.7867,-1.7844,-1.7843,-1.7855,-1.7839,-1.7836,-1.7832,-1.7815,-1.7813,-1.7823,-1.7823,-1.7799,-1.7797,-1.7795,-1.7783,-1.7785,-1.7784,-1.7783,-1.7753,-1.7753,-1.7753,0,0,0,0,0,0,-1.7872,-1.7869,-1.7845,-1.7854,-1.7851,-1.7839,-1.7833,-1.7831,-1.7827,-1.7813,-1.781,-1.7821,-1.7799,-1.7796,-1.7785,-1.7782,-1.7784,-1.7783,-1.7754,-1.7753,-1.7753,-1.776,0,0,0,0,0,0,-1.7873,-1.787,-1.7868,-1.7854,-1.7851,-1.7837,-1.7833,-1.7831,-1.7825,-1.7824,-1.781,-1.7807,-1.7799,-1.7787,-1.7784,-1.778,-1.7782,-1.7754,-1.7753,-1.7753,-1.776,-1.776,-1.776,0,0,0,0,0,-1.7874,-1.7871,-1.7868,-1.7865,-1.7848,-1.7837,-1.7835,-1.7826,-1.7825,-1.7822,-1.7813,-1.7808,-1.7783,-1.7785,-1.7782,-1.7778,-1.7754,-1.7754,-1.7753,-1.776,-1.776,-1.776,0,0,0,0,0,0,-1.7884,-1.7869,-1.7866,-1.7858,-1.7849,-1.7835,-1.7832,-1.7827,-1.7817,-1.7816,-1.7805,-1.7802,-1.7791,-1.7784,-1.7787,-1.7769,-1.7768,-1.7767,-1.7774,-1.7774,-1.7774,-1.7776,-1.7781,0,0,0,0,0,-1.7885,-1.7879,-1.7865,-1.786,-1.7856,-1.7844,-1.7839,-1.7833,-1.7823,-1.7818,-1.7808,-1.7797,-1.7787,-1.778,-1.777,-1.7759,-1.7754,-1.7754,-1.7754,-1.7755,-1.7754,-1.7744,-1.7744,-1.7752,-1.7752,-1.7752,0,0,-1.7888,-1.7879,-1.7875,-1.7862,-1.7854,-1.7845,-1.7841,-1.7833,-1.7826,-1.7817,-1.7806,-1.7797,-1.7784,-1.7772,-1.7767,-1.7766,-1.775,-1.7754,-1.7754,-1.7753,-1.7744,-1.7743,-1.7743,-1.7752,-1.7752,-1.7752,0,0,-1.7888,-1.7882,-1.7876,-1.7868,-1.7856,-1.7848,-1.7846,-1.7833,-1.7827,-1.7816,-1.7808,-1.7798,-1.7781,-1.7771,-1.7764,-1.7758,-1.7752,-1.7754,-1.7754,-1.7746,-1.7745,-1.7744,-1.774,-1.7739,-1.7754,-1.7754,-1.7754,0,-1.7893,-1.7882,-1.7873,-1.7865,-1.7858,-1.7849,-1.7842,-1.7834,-1.7819,-1.7814,-1.7813,-1.7789,-1.778,-1.7764,-1.7763,-1.7758,-1.7753,-1.7756,-1.7746,-1.7745,-1.7745,-1.774,-1.7739,-1.7754,-1.7754,-1.7754,-1.7754,0,-1.7887,-1.7878,-1.7875,-1.7861,-1.7853,-1.7846,-1.7834,-1.7827,-1.7821,-1.7813,-1.7799,-1.7787,-1.7773,-1.7769,-1.7763,-1.7752,-1.7751,-1.7749,-1.7747,-1.7744,-1.774,-1.7738,-1.7754,-1.7754,-1.7754,-1.7754,0,0,-1.7894,-1.7874,-1.7873,-1.7865,-1.785,-1.7843,-1.7833,-1.782,-1.7814,-1.7803,-1.7793,-1.7777,-1.7774,-1.7765,-1.7758,-1.775,-1.7743,-1.7748,-1.7747,-1.7746,-1.7727,-1.7728,-1.7727,-1.7739,-1.7739,-1.7738,-1.7727,0,-1.7891,-1.7876,-1.7867,-1.7854,-1.7845,-1.7835,-1.7826,-1.7815,-1.7806,-1.7796,-1.7785,-1.7774,-1.7771,-1.7765,-1.7758,-1.7746,-1.7739,-1.7746,-1.7728,-1.7727,-1.7731,-1.7725,-1.7727,-1.7717,-1.7726,-1.7725,-1.7725,0,-1.7887,-1.7876,-1.7863,-1.7847,-1.7842,-1.7835,-1.7821,-1.7812,-1.7797,-1.7791,-1.7781,-1.7773,-1.776,-1.7759,-1.774,-1.7745,-1.7736,-1.7729,-1.7728,-1.7725,-1.7726,-1.772,-1.7714,-1.7712,-1.7723,-1.7723,-1.7723,0,-1.7891,-1.7874,-1.7863,-1.7857,-1.7838,-1.7833,-1.7825,-1.7811,-1.7802,-1.7789,-1.7783,-1.7768,-1.776,-1.7747,-1.7734,-1.7736,-1.7715,-1.7714,-1.7707,-1.7707,-1.7703,-1.7703,-1.7694,-1.77,-1.77,-1.77,-1.77,0,-1.7889,-1.7881,-1.7864,-1.7858,-1.7847,-1.7835,-1.7824,-1.7815,-1.7802,-1.7792,-1.7782,-1.7772,-1.7756,-1.7743,-1.7733,-1.7716,-1.7713,-1.7706,-1.7703,-1.7706,-1.7707,-1.77,-1.77,-1.7699,-1.7699,-1.7699,-1.7699,0,-1.7893,-1.7882,-1.7869,-1.7852,-1.7847,-1.784,-1.7825,-1.7816,-1.7806,-1.7793,-1.7789,-1.7772,-1.7756,-1.7742,-1.7721,-1.7713,-1.7696,-1.7693,-1.7701,-1.7699,-1.7693,-1.7693,-1.7677,-1.7674,-1.7683,-1.7683,-1.7683,0,-1.7892,-1.7885,-1.7867,-1.786,-1.7852,-1.7841,-1.7832,-1.7819,-1.781,-1.7792,-1.7785,-1.7768,-1.7754,-1.7728,-1.7713,-1.7696,-1.7691,-1.7687,-1.7689,-1.7691,-1.7689,-1.7689,-1.7687,-1.7687,-1.7687,-1.7687,-1.7687,0,-1.7891,-1.7885,-1.7874,-1.786,-1.7849,-1.7838,-1.7825,-1.7819,-1.7803,-1.7793,-1.7777,-1.7766,-1.7744,-1.7726,-1.7707,-1.7695,-1.7687,-1.7686,-1.7683,-1.7686,-1.769,-1.7686,-1.77,-1.7687,-1.7687,-1.7687,-1.7687,-1.7687,-1.7891,-1.7884,-1.7869,-1.7856,-1.7845,-1.7833,-1.7824,-1.7812,-1.7799,-1.7781,-1.7773,-1.7756,-1.7738,-1.7712,-1.77,-1.7685,-1.7683,-1.768,-1.7679,-1.7678,-1.7677,-1.7694,-1.7681,-1.7681,-1.7681,-1.7681,-1.7681,0,-1.7888,-1.7878,-1.7866,-1.7849,-1.7837,-1.7832,-1.7817,-1.7807,-1.7793,-1.7778,-1.7764,-1.7744,-1.7726,-1.7708,-1.7689,-1.7679,-1.7675,-1.7675,-1.7675,-1.7671,-1.7681,-1.7684,-1.7678,-1.7678,-1.7678,-1.7678,-1.7678,-1.7678,-1.7885,-1.7872,-1.7864,-1.7844,-1.7833,-1.7817,-1.7809,-1.7797,-1.7784,-1.7762,-1.7748,-1.7737,-1.772,-1.7699,-1.7681,-1.7676,-1.7668,-1.7668,-1.7662,-1.7671,-1.7671,-1.7672,-1.7675,-1.7667,-1.7667,-1.7654,-1.7654,-1.7654]}]]